sat.trackr.live / text

‹ back to catalog

STARLINK-5493

NORAD 55333 · 2023-013C

PAYLOAD ACTIVE UNKNOWN

§ Identity

Operator
Country
US
Launch date
2023-01-26
Launch site
AFETR
Launch vehicle
Mass (kg)
RCS (m²)

Purposes: comms

External: N2YO · Heavens-Above · Gunter

§ Orbital elements

Epoch: 2026-05-24T22:41:40.615008Z

Period
94.31 min
Inclination
43.0004°
Eccentricity
0.0000904
Mean motion
15.26913582 rev/d
Perigee alt
484.4 km
Apogee alt
485.7 km
Semi-major
6,863.2 km
B*
8.1243e-4
RAAN
232.9404°
Arg perigee
232.8952°
Mean anomaly
127.1817°
Rev number
18,333

§ Raw data

STARLINK-54931 55333U 23013C   26144.94560897  .00021712  00000+0  81243-3 0  99962 55333  43.0004 232.9404 0000904 232.8952 127.1817 15.26913582183337

JSON: /api/v1/satellites/55333 · /tle

For live sub-satellite position, see the globe view (requires WebGL).

§ Visibility from observer

Set your observer location to see the next 7 days of passes ≥ 10°. The values pass through the URL so the page stays shareable.

No JS? Fill the form by hand. The geolocation button needs JavaScript.